Location: Newark
(45.0500°N, 41.9667°E)
Time: 14:31:42
(UTC+00:00)

Starlink (trailer) - Pass Details

Date: 27 July 2019
Orbit: 549 x 551 km, 53.0° (Epoch: 22 August)

Event Time Altitude Azimuth Distance (km) Brightness Sun altitude
Exits shadow 22:26:54 - 287° (WNW) 2,347 6.8 -24.0°
Reaches altitude 10° 22:28:24 10° 296° (WNW) 1,826 6.3 -23.9°
Maximum altitude 22:31:58 27° 355° (N) 1,076 5.7 -23.7°
Drops below altitude 10° 22:35:33 10° 55° (NE) 1,828 7.0 -23.5°
Sets 22:38:03 0° 67° (ENE) 2,723 7.8 -23.3°
